Weather History for London-Corbin, KY

Change the Weather History Date:

Sunday, April 7, 2013

  Actual Average Record
Temperature  
Mean Temperature 62 °F 54 °F  
Max Temperature 74 °F 66 °F 84 °F (2001)
Min Temperature 49 °F 42 °F 21 °F (1982)
Degree Days  
Heating Degree Days 3 11  
Month to date heating degree days 120 86  
Since 1 July heating degree days 4260 3911  
Cooling Degree Days 0 0  
Month to date cooling degree days 0 0  
Year to date cooling degree days 0 3  
Growing Degree Days 12 (Base 50)    
Moisture  
Dew Point 39 °F    
Average Humidity 43    
Maximum Humidity 61    
Minimum Humidity 25    
Precipitation  
Precipitation 0.00 in 0.13 in 2.02 in (1972)
Month to date precipitation 0.25 0.89  
Year to date precipitation 12.49 12.19  
Sea Level Pressure  
Sea Level Pressure 30.03 in    
Wind  
Wind Speed 6 mph (SSW)    
Max Wind Speed 21 mph    
Max Gust Speed 28 mph    
Visibility 10 miles    
Events      
T = Trace of Precipitation, MM = Missing Value Source: NWS Daily Summary

Daily Weather History Graph

Daily Weather History Graph

Search for Another Location

Airport:

Trip Planner

Search our weather history database for the weather conditions in past years. The results will help you decide how hot, cold, wet, or windy it might be!

Date:

Astronomy

Apr. 07, 2013 Rise Set
Actual Time 7:12 AM EDT 8:04 PM EDT
Civil Twilight 6:46 AM EDT 8:30 PM EDT
Nautical Twilight 6:15 AM EDT 9:02 PM EDT
Astronomical Twilight 5:42 AM EDT 9:34 PM EDT
Moon 5:26 AM EDT (4/7) 5:38 PM EDT (4/7)
Length of Visible Light 13h 44m
Length of Day
12h 51m
Waning Crescent, 8% of the Moon is Illuminated
Apr 7
Waning Crescent
Apr 10
New
Apr 18
First Quarter
Apr 25
Full
May 2
Last Quarter

Hourly Weather History & Observations

Time (EDT) Temp. Dew Point Humidity Pressure Visibility Wind Dir Wind Speed Gust Speed Precip Events Conditions
12:53 AM 55.9 °F 34.0 °F 44% 30.04 in 10.0 mi South 3.5 mph - N/A   Clear
1:53 AM 53.1 °F 34.0 °F 48% 30.04 in 10.0 mi Calm Calm - N/A   Clear
2:53 AM 51.1 °F 34.0 °F 52% 30.01 in 10.0 mi South 3.5 mph - N/A   Clear
3:53 AM 55.0 °F 35.1 °F 47% 30.00 in 10.0 mi South 6.9 mph - N/A   Clear
4:53 AM 55.0 °F 34.0 °F 45% 30.01 in 10.0 mi SW 5.8 mph - N/A   Clear
5:53 AM 54.0 °F 35.1 °F 49% 30.02 in 10.0 mi SSW 5.8 mph - N/A   Clear
6:53 AM 52.0 °F 36.0 °F 54% 30.03 in 10.0 mi South 6.9 mph - N/A   Clear
7:53 AM 53.1 °F 37.0 °F 55% 30.05 in 9.0 mi South 5.8 mph - N/A   Clear
8:53 AM 57.9 °F 41.0 °F 53% 30.06 in 10.0 mi SSW 8.1 mph - N/A   Clear
9:53 AM 64.0 °F 41.0 °F 43% 30.06 in 10.0 mi SW 12.7 mph 20.7 mph N/A   Clear
10:53 AM 64.9 °F 42.1 °F 43% 30.07 in 10.0 mi WSW 8.1 mph 20.7 mph N/A   Clear
11:53 AM 66.9 °F 42.1 °F 40% 30.07 in 10.0 mi WSW 18.4 mph 26.5 mph N/A   Clear
12:53 PM 68.0 °F 42.1 °F 39% 30.06 in 10.0 mi SW 10.4 mph 21.9 mph N/A   Clear
1:53 PM 71.1 °F 42.1 °F 35% 30.04 in 10.0 mi SSW 13.8 mph 20.7 mph N/A   Scattered Clouds
2:53 PM 72.0 °F 41.0 °F 33% 30.01 in 10.0 mi SSW 13.8 mph 19.6 mph N/A   Partly Cloudy
3:53 PM 73.0 °F 37.9 °F 28% 29.99 in 10.0 mi SW 10.4 mph - N/A   Mostly Cloudy
4:53 PM 73.0 °F 36.0 °F 26% 29.99 in 10.0 mi SW 8.1 mph 19.6 mph N/A   Overcast
5:53 PM 72.0 °F 35.1 °F 26% 29.99 in 10.0 mi WSW 6.9 mph - N/A   Mostly Cloudy
6:53 PM 69.1 °F 39.0 °F 33% 30.00 in 10.0 mi WNW 5.8 mph - N/A   Overcast
7:53 PM 66.9 °F 41.0 °F 39% 30.00 in 10.0 mi Calm Calm - N/A   Mostly Cloudy
8:53 PM 62.1 °F 43.0 °F 50% 30.01 in 10.0 mi Calm Calm - N/A   Overcast
9:53 PM 61.0 °F 41.0 °F 48% 30.01 in 10.0 mi SSE 3.5 mph - N/A   Partly Cloudy
10:53 PM 57.0 °F 42.1 °F 57% 30.02 in 10.0 mi Calm Calm - N/A   Scattered Clouds
11:53 PM 55.0 °F 42.1 °F 62% 30.02 in 10.0 mi Calm Calm - N/A   Mostly Cloudy